Stone Corral
DateTemperatureDew Point
09/06 - 02:00 PM89.0°57.2°
09/06 - 01:45 PM88.9°57.8°
09/06 - 01:30 PM88.4°57.4°
09/06 - 01:15 PM87.7°57.3°
09/06 - 01:00 PM86.2°57.0°
09/06 - 12:45 PM86.1°56.8°
09/06 - 12:30 PM85.4°56.4°
09/06 - 12:15 PM85.2°57.2°
09/06 - 12:00 PM85.2°57.8°
09/06 - 11:45 AM84.6°57.4°
09/06 - 11:30 AM84.7°57.3°
09/06 - 11:15 AM83.8°56.8°
09/06 - 11:00 AM83.0°56.4°
09/06 - 10:45 AM82.1°56.9°
09/06 - 10:30 AM80.2°56.5°
09/06 - 10:15 AM78.5°56.2°
09/06 - 10:00 AM77.7°56.2°
09/06 - 09:45 AM76.3°57.8°
09/06 - 09:30 AM74.4°56.8°
09/06 - 09:15 AM72.4°56.3°
09/06 - 09:00 AM70.5°55.8°
09/06 - 08:45 AM69.0°56.4°
09/06 - 08:30 AM68.1°56.1°
09/06 - 08:15 AM66.4°56.3°
09/06 - 08:00 AM64.8°55.7°
09/06 - 07:45 AM64.1°53.2°
09/06 - 07:30 AM63.2°52.3°
09/06 - 07:15 AM60.4°53.5°
09/06 - 07:00 AM57.3°53.4°
09/06 - 06:45 AM56.4°52.9°
09/06 - 06:30 AM56.1°52.8°
09/06 - 06:15 AM56.3°53.0°
09/06 - 06:00 AM56.5°53.3°
09/06 - 05:45 AM57.1°53.7°
09/06 - 05:30 AM57.3°53.7°
09/06 - 05:15 AM57.9°54.1°
09/06 - 05:00 AM57.9°54.2°
09/06 - 04:45 AM57.6°53.6°
09/06 - 04:30 AM58.2°53.3°
09/06 - 04:15 AM58.4°53.1°
09/06 - 04:00 AM58.7°53.8°
09/06 - 03:45 AM59.2°54.0°
09/06 - 03:30 AM59.9°54.1°
09/06 - 03:15 AM60.3°54.2°
09/06 - 03:00 AM60.4°54.2°
09/06 - 02:45 AM61.2°54.0°
09/06 - 02:30 AM62.0°53.7°
09/06 - 02:15 AM62.6°53.5°
09/06 - 02:00 AM63.0°53.8°
09/06 - 01:45 AM63.2°53.3°
09/06 - 01:30 AM63.5°53.1°
09/06 - 01:15 AM63.8°53.2°
09/06 - 01:00 AM64.1°53.7°
09/06 - 12:45 AM64.8°53.8°
09/06 - 12:30 AM65.3°53.5°
09/06 - 12:15 AM66.3°53.6°
09/06 - 12:00 AM67.8°53.7°
09/05 - 11:45 PM69.3°53.2°
09/05 - 11:30 PM71.1°52.2°
09/05 - 11:15 PM72.0°51.4°
09/05 - 11:00 PM72.6°52.2°
09/05 - 10:45 PM73.3°51.7°
09/05 - 10:30 PM75.0°53.0°
09/05 - 10:15 PM76.0°52.5°
09/05 - 10:00 PM76.5°52.6°
09/05 - 09:45 PM77.2°52.7°
09/05 - 09:30 PM77.1°52.7°
09/05 - 09:15 PM77.3°53.0°
09/05 - 09:00 PM77.1°53.1°
09/05 - 08:45 PM76.9°53.1°
09/05 - 08:30 PM75.3°53.1°
09/05 - 08:15 PM74.3°53.7°
09/05 - 08:00 PM74.8°52.7°
09/05 - 07:45 PM75.2°53.0°
09/05 - 07:30 PM76.9°53.6°
09/05 - 07:15 PM78.5°54.0°
09/05 - 07:00 PM80.4°55.5°
09/05 - 06:45 PM82.2°56.6°
09/05 - 06:30 PM83.8°57.1°
09/05 - 06:15 PM85.3°56.4°
09/05 - 06:00 PM86.2°55.3°
09/05 - 05:45 PM87.0°55.3°
09/05 - 05:30 PM87.5°55.4°
09/05 - 05:15 PM88.1°55.9°
09/05 - 05:00 PM88.6°56.1°
09/05 - 04:45 PM88.7°55.4°
09/05 - 04:30 PM89.1°54.8°
09/05 - 04:15 PM89.2°55.3°
09/05 - 04:00 PM89.4°55.8°
09/05 - 03:45 PM89.1°57.5°
09/05 - 03:30 PM88.8°56.8°
09/05 - 03:15 PM89.7°58.3°
09/05 - 03:00 PM90.1°59.0°
09/05 - 02:45 PM90.3°59.2°
09/05 - 02:30 PM89.5°58.8°
09/05 - 02:15 PM89.4°58.8°
09/05 - 02:00 PM89.3°59.4°
09/05 - 01:45 PM88.2°59.3°
09/05 - 01:30 PM87.9°59.6°
09/05 - 01:15 PM87.4°59.9°
09/05 - 01:00 PM86.4°59.2°
09/05 - 12:45 PM86.7°59.2°
09/05 - 12:30 PM85.4°58.8°
09/05 - 12:15 PM84.7°58.7°
09/05 - 12:00 PM85.2°58.9°
09/05 - 11:45 AM83.5°58.5°
09/05 - 11:30 AM82.5°57.8°
09/05 - 11:15 AM81.8°57.0°
09/05 - 11:00 AM81.2°57.6°
09/05 - 10:45 AM78.8°56.7°
09/05 - 10:30 AM78.2°56.9°
09/05 - 10:15 AM76.4°56.6°
09/05 - 10:00 AM75.1°56.5°
09/05 - 09:45 AM74.1°56.3°
09/05 - 09:30 AM72.8°55.6°
09/05 - 09:15 AM71.9°55.8°
09/05 - 09:00 AM68.9°55.4°
09/05 - 08:45 AM66.6°54.6°
09/05 - 08:30 AM64.6°54.8°
09/05 - 08:15 AM62.9°54.4°
09/05 - 08:00 AM60.6°54.7°
09/05 - 07:45 AM58.5°53.9°
09/05 - 07:30 AM57.7°53.6°
09/05 - 07:15 AM57.3°53.2°
09/05 - 07:00 AM57.1°52.4°
09/05 - 06:45 AM57.1°52.2°
09/05 - 06:30 AM57.9°52.0°
09/05 - 06:15 AM58.4°51.8°
09/05 - 06:00 AM55.4°50.8°
09/05 - 05:45 AM55.6°50.7°
09/05 - 05:30 AM56.1°51.0°
09/05 - 05:15 AM56.9°51.3°
09/05 - 05:00 AM57.4°51.3°
09/05 - 04:45 AM57.8°50.9°
09/05 - 04:30 AM58.2°51.2°
09/05 - 04:15 AM58.2°50.6°
09/05 - 04:00 AM58.9°50.6°
09/05 - 03:45 AM59.4°50.8°
09/05 - 03:30 AM59.7°51.3°
09/05 - 03:15 AM59.5°51.1°
09/05 - 03:00 AM60.0°51.5°
09/05 - 02:45 AM60.5°52.1°
09/05 - 02:30 AM61.5°53.0°
09/05 - 02:15 AM62.0°52.0°
09/05 - 02:00 AM61.6°51.0°
09/05 - 01:45 AM61.7°50.7°
09/05 - 01:30 AM62.0°51.2°
09/05 - 01:15 AM62.5°51.5°
09/05 - 01:00 AM63.3°51.1°
09/05 - 12:45 AM64.1°51.8°
09/05 - 12:30 AM65.0°51.6°
09/05 - 12:15 AM65.7°50.6°
09/05 - 12:00 AM65.4°49.8°
09/04 - 11:45 PM65.7°50.5°
09/04 - 11:30 PM66.5°50.8°
09/04 - 11:15 PM67.6°51.5°
09/04 - 11:00 PM67.9°52.4°
09/04 - 10:45 PM67.2°53.1°
09/04 - 10:30 PM68.3°54.3°
09/04 - 10:15 PM69.1°53.6°
09/04 - 10:00 PM70.0°53.0°
09/04 - 09:45 PM71.1°53.4°
09/04 - 09:30 PM72.7°54.4°
09/04 - 09:15 PM73.8°54.4°
09/04 - 09:00 PM72.1°53.8°
09/04 - 08:45 PM72.2°54.4°
09/04 - 08:30 PM72.4°54.5°
09/04 - 08:15 PM73.9°55.5°
09/04 - 08:00 PM74.8°54.7°
09/04 - 07:45 PM75.3°54.8°
09/04 - 07:30 PM76.1°54.8°
09/04 - 07:15 PM76.7°55.6°
09/04 - 07:00 PM77.6°56.3°
09/04 - 06:45 PM78.8°56.7°
09/04 - 06:30 PM80.0°56.9°
09/04 - 06:15 PM81.0°57.1°
09/04 - 06:00 PM81.9°57.4°
09/04 - 05:45 PM82.7°57.9°
09/04 - 05:30 PM83.3°57.9°
09/04 - 05:15 PM83.9°58.2°
09/04 - 05:00 PM84.2°58.4°
09/04 - 04:45 PM84.8°58.9°
09/04 - 04:30 PM85.1°59.1°
09/04 - 04:15 PM84.7°59.1°
09/04 - 04:00 PM84.9°58.9°
09/04 - 03:45 PM85.4°59.4°
09/04 - 03:30 PM84.9°59.4°
09/04 - 03:15 PM85.5°59.8°
09/04 - 03:00 PM85.3°60.1°
09/04 - 02:45 PM86.0°60.2°